Tracking 31027 objects as of 19-Jul-2025
HD Live streaming from Space Station
objects crossing your sky now

NOAA 17 DEB

Track NOAA 17 DEB now!
10-day predictions


NORAD ID: 48184
Int'l Code: 2002-032AA
Perigee: 735.7 km
Apogee: 755.0 km
Inclination: 98.8 °
Period: 99.6 minutes
Semi major axis: 7116 km
RCS: Unknown
Launch date: June 24, 2002
Source: United States (US)
Launch site: AIR FORCE WESTERN TEST RANGE (AFWTR)

Note: This is SATELLITE DEBRIS
Your satellite tracking list
COSMOS 1656
Track 1 satellite(s)




NASA's NSSDC Master Catalog

Two Line Element Set (TLE):
1 48184U 02032Z   25198.88394492  .00004914  00000-0  13860-2 0  9992
2 48184  98.8115 178.8978 0013574 177.4134 182.7129 14.46155800224354
Source of the keplerian elements: AFSPC